Hourly Data Report for October 17, 2013

All times are specified in Local Standard Time (LST). Add 1 hour to adjust for Daylight Saving Time where and when it is observed.

GJOA HAVEN A
NUNAVUT

68°38'08.000" N
95°51'01.000" W
46.90 m
2302337
71597
YHK

Download Data

Hourly Data (October 2013)
Hourly Data Report for October 17, 2013
Temp Definition
°C
Dew Point Temp Definition
°C
Rel Hum Definition
%
Wind Dir Definition
10's deg

Wind Spd Definition
km/h
Visibility Definition
km
Stn Press Definition
kPa
Hmdx Definition


Wind Chill Definition


Weather Definition


TIME
00:00 Legend Double Dagger -5.8 -6.2 97 35 9 4.8 99.78   -10 LegendNANA
01:00 Legend Double Dagger -5.8 -6.2 97 1 13 3.6 99.77   -11 LegendNANA
02:00 Legend Double Dagger -6.1 -6.5 97 1 11 8.1 99.78   -11 LegendNANA
03:00 Legend Double Dagger -6.2 -6.7 96 35 9 8.1 99.79   -10 LegendNANA
04:00 Legend Double Dagger -6.3 -7.0 95 36 11 16.1 99.81   -11 LegendNANA
05:00 Legend Double Dagger -6.4 -7.2 94 33 15 16.1 99.81   -12 LegendNANA
06:00 Legend Double Dagger -6.5 -7.5 93 35 15 16.1 99.81   -12 LegendNANA
07:00 Legend Double Dagger -7.0 -7.7 95 1 18 16.1 99.83   -14 LegendNANA
08:00
09:00 Legend Double Dagger -7.3 -8.0 95 35 15 16.1 99.83   -13 LegendNANA
10:00 Legend Double Dagger -7.2 -8.1 93 36 11 16.1 99.85   -12 LegendNANA
11:00 Legend Double Dagger -7.1 -7.6 96 35 13 11.3 99.86   -13 LegendNANA
12:00 Legend Double Dagger -7.6 -8.7 92 36 15 16.1 99.86   -14 LegendNANA
13:00 Legend Double Dagger -7.4 -8.4 92 35 15 16.1 99.82   -14 LegendNANA
14:00 Legend Double Dagger -7.6 -8.5 93 34 17 16.1 99.83   -14 LegendNANA
15:00 Legend Double Dagger -7.5 -8.1 95 33 21 8.1 99.84   -15 LegendNANA
16:00 Legend Double Dagger -8.1 -8.5 97 32 17 16.1 99.84   -15 LegendNANA
17:00 Legend Double Dagger -7.6 -8.0 97 31 17 1.6 99.81   -14 LegendNANA
18:00 Legend Double Dagger -6.3 -6.7 97 33 24 1.2 99.75   -14 LegendNANA
19:00 Legend Double Dagger -5.4 -5.9 96 2 24 16.1 99.73   -13 LegendNANA
20:00 Legend Double Dagger -5.6 -6.0 97 2 22 16.1 99.72   -13 LegendNANA
21:00 Legend Double Dagger -5.7 -6.1 97 1 22 2.4 99.72   -13 LegendNANA
22:00 Legend Double Dagger -6.3 -6.7 97 36 24 2.8 99.69   -14 LegendNANA
23:00 Legend Double Dagger -6.6 -7.1 96 36 26 6.4 99.66   -15 LegendNANA

Notes on Data Quality.

Legend

  • E = Estimated
  • M = Missing
  • NA = Not Available
  • ‡ = Partner data that is not subject to review by the National Climate Archives
Date modified: